Balikesir afb, Turkey

11:09 AM +03 on January 18, 2017 (GMT +0300)
Balikesir Air Base | | Change Station

Elev 335 ft 39.62 °N, 27.92 °E | Updated 19 minutes ago

Mostly Cloudy
Mostly Cloudy
43 °F
Feels Like 43 °F
N
0
Wind Variable Wind from North

Today
High -- | Low -- °F
--% Chance of Precip.
Yesterday
High -- | Low -- °F
Precip. -- in
Pressure 30.18 in
Visibility 0.9 miles
Clouds Mostly Cloudy 300 ft
Dew Point 43 °F
Humidity 100%
Rainfall 0.00 in
Snow Depth Not available.
8:25 AM 6:11 PM
Waning Gibbous, 65% visible
METAR LTBF 180750Z 00000KT 1400 R36/1400U R18/P1500U BR BKN003 06/06 Q1022 BECMG TL0900 1600
Pressure 30.18 in
Visibility 0.9 miles
Clouds Mostly Cloudy 300 ft
Dew Point 43 °F
Humidity 100%
Rainfall 0.00 in
Snow Depth Not available.
8:25 AM 6:11 PM
Waning Gibbous, 65% visible
METAR LTBF 180750Z 00000KT 1400 R36/1400U R18/P1500U BR BKN003 06/06 Q1022 BECMG TL0900 1600

Get Your Daily Forecast Email!

Thanks for signing up!

Be on the lookout for a verification email in your inbox.

You'll start receiving the daily forecast at 8 AM.

×

10-Day Weather Forecast

×

Almanac

Astronomy

Jan. 18, 2017 Rise Set
Actual Time
Civil Twilight
Nautical Twilight
Astronomical Twilight
Moon
Length of Visible Light
Length of Day
Tomorrow will be .
, % of the Moon is Illuminated

Today's Extremes

Country Highs Country Lows

Community

WunderPhotos

Upload Photos

1,962,540 photos uploaded!

WunderBlog® & News

Nearby

Air Quality

  Air Quality AQ Index Pollutant
Not available.

Snow Depth

Station Depth Elevation

Earthquake Activity

City Distance Mag. Time & Date
Minimum magnitude displayed is 2.5.

Coastal Water Temperatures

Place Temperature

Stations

Nearby Weather Stations

Station Location Temp. Windchill Dew Point Humidity Wind Precip. Elev Updated Type